Skip Page Navigation
NASA JPL Caltech
NASA Logo - Jet Propulsion Laboratory + View the NASA Portal
+ Near-Earth Object (NEO) Program
Search JPL
JPL Home Earth Solar System Stars & Galaxies Technology
JPL Solar System Dynamics
BODIES ORBITS EPHEMERIDES TOOLS PHYSICAL DATA DISCOVERY FAQ SITE MAP
JPL Small-Body Database Browser
Search: [ help ]  
(2007 XY9)
Classification: Apollo [NEO, PHA]          SPK-ID: 3397572
Ephemeris | Orbit Diagram | Orbital Elements | Physical Parameters | Close-Approach Data ]

[ hide orbit diagram ]
Orbit Diagram
Note: Make sure you have Java enabled on your browser to see the applet. This applet is provided as a 3D orbit visualization tool. The applet was implemented using 2-body methods, and hence should not be used for determining accurate long-term trajectories (over several years or decades) or planetary encounter circumstances. For accurate long-term ephemerides, please instead use our Horizons system.
Orbit Viewer

Additional Notes: the orbits shown in the applet are color coded. The planets are white lines, and the asteroid/comet is a blue line. The bright white line indicates the portion of the orbit that is above the ecliptic plane, and the darker portion is below the ecliptic plane. Likewise for the asteroid/comet orbit, the light blue indicates the portion above the ecliptic plane, and the dark blue the portion below the ecliptic plane.

Orbit Viewer applet originally written and kindly provided by Osamu Ajiki (AstroArts), and further modified by Ron Baalke (JPL).


Orbital Elements at Epoch 2456400.5 (2013-Apr-18.0) TDB
Reference: JPL 15 (heliocentric ecliptic J2000)
 Element Value Uncertainty (1-sigma)   Units 
e .6192409441143103 8.6654e-07  
a 2.04843024470491 3.2366e-07 AU
q .779958366021534 1.8596e-06 AU
i 3.337262534188321 3.4736e-05 deg
node 234.3108409010729 0.00022602 deg
peri 127.0255385620923 0.00039409 deg
M 313.6849086393069 0.00018376 deg
tp 2456538.268592154262
(2013-Sep-02.76859215)
0.00057912 JED
period 1070.85383442914
2.93
0.00025379
6.948e-07
d
yr
n .3361803342581409 7.9675e-08 deg/d
Q 3.316902123388286 5.2408e-07 AU
  Orbit Determination Parameters
   # obs. used (total)      60  
   data-arc span      1102 days (3.02 yr)  
   first obs. used      2007-12-04  
   last obs. used      2010-12-10  
   planetary ephem.      DE405  
   SB-pert. ephem.      SB405-CPV-2  
   condition code      1  
   fit RMS      .50304  
   data source      ORB  
   producer      Otto Matic  
   solution date      2011-Sep-14 20:23:01  

Additional Information
 Earth MOID = .0100504 AU 
 T_jup = 3.524 
[ show covariance matrix ]

Ephemeris | Orbit Diagram | Orbital Elements | Physical Parameters | Close-Approach Data ]

Physical Parameter Table
Parameter Symbol Value Units Sigma Reference Notes
absolute magnitude H 21.02 mag .36741 15 autocmod 2.5a

[ show close-approach data ]
Ephemeris | Orbit Diagram | Orbital Elements | Physical Parameters | Close-Approach Data ]
ABOUT SSD CREDITS/AWARDS PRIVACY/COPYRIGHT GLOSSARY LINKS
FirstGov 2013-May-25 00:57 UT
(server date/time)  
NASA Home Page
Site Manager:   Donald K. Yeomans
Webmaster  Alan B. Chamberlin